Lid_Strength_Index
1 1 0 0 0 1 1 2 1 1 1 1 1 2 2 2 5 6 8 5 4 2 3 7 8 8 7 8 9 9 10 11 11 12 11 11 12 11 10 11 11 11 10 9 7
1 1 1 0 -0 0 1 1 2 2 1 1 1 1 2 2 7 9 4 2 2 2 6 8 9 8 9 10 9 9 11 11 12 11 12 12 12 12 12 12 12 11 10 8 7
1 1 0 0 -0 -0 0 1 2 2 3 2 2 2 2 4 9 10 4 3 2 4 6 7 8 9 11 10 11 12 12 13 13 12 12 12 12 11 12 12 11 11 10 8 8
1 1 0 0 -0 -0 -0 1 1 3 3 3 3 2 3 7 13 9 4 4 4 6 7 9 9 10 11 12 11 13 13 13 12 11 12 12 11 12 11 11 10 10 9 9 8
2 1 1 0 0 -0 0 0 1 2 3 3 3 3 7 11 11 7 6 6 6 7 8 10 11 11 12 12 12 12 12 12 12 12 11 11 12 11 11 9 10 10 10 9 9
1 1 1 1 0 0 0 1 1 2 3 3 3 4 10 13 9 8 8 7 7 8 8 9 10 10 11 12 12 12 12 12 12 12 12 13 12 12 11 10 10 10 10 9 9
1 1 1 1 0 1 1 2 2 2 4 3 3 9 10 12 9 8 8 8 7 8 9 8 8 9 10 12 11 12 13 12 12 12 13 13 14 14 10 11 11 10 10 9 9
1 1 1 1 1 1 2 3 3 4 3 4 6 9 12 9 8 9 7 8 6 6 7 7 7 9 10 11 13 14 14 15 14 13 13 13 15 13 11 11 11 10 10 10 10
1 1 1 1 1 2 2 3 4 5 5 8 8 10 13 8 10 9 8 9 8 7 7 8 9 11 11 13 13 14 13 16 15 13 14 14 14 13 12 12 11 10 10 10 10
0 1 1 1 1 3 3 5 5 6 7 9 9 10 11 13 11 10 8 8 9 9 9 9 11 12 13 12 14 14 15 17 16 15 14 15 15 12 11 12 12 11 10 10 11
0 0 0 1 2 3 5 4 6 7 9 13 14 14 13 10 10 10 9 9 10 10 12 12 11 13 15 15 15 16 16 16 15 15 15 15 15 13 11 12 12 12 11 11 11
0 0 1 1 4 5 6 9 11 10 11 11 13 13 12 11 13 10 8 11 12 13 13 12 14 15 14 14 15 15 17 16 15 15 15 15 16 13 13 13 12 11 11 11 10
1 1 2 2 5 6 8 10 9 9 11 12 14 14 14 11 13 12 10 12 14 14 15 13 14 14 14 15 16 16 16 17 17 15 16 16 14 14 13 12 12 11 11 11 10
1 2 2 2 4 7 9 9 8 8 13 13 14 13 12 12 13 11 10 11 13 14 15 14 14 14 15 16 15 16 15 16 17 16 17 16 18 14 14 13 12 11 11 10 10
2 2 3 3 5 7 9 8 8 9 18 14 14 11 11 12 12 12 9 11 14 14 13 14 15 15 16 15 15 16 15 16 18 18 19 18 18 14 14 14 13 11 11 10 10
3 3 3 4 5 8 7 8 8 14 17 13 14 14 12 12 13 12 11 10 11 13 14 15 13 14 14 14 15 15 17 18 18 18 19 22 19 15 14 14 13 11 11 11 10
3 4 5 5 6 6 6 7 14 16 12 12 14 13 14 14 13 13 14 13 13 14 15 16 15 14 14 15 14 16 16 17 18 18 18 24 21 15 13 13 12 11 11 11 11
3 4 6 6 5 5 5 10 15 15 14 11 13 12 13 14 14 14 14 14 14 15 17 16 17 16 14 15 16 17 17 17 21 20 18 24 20 14 13 13 12 12 12 12 11
2 3 4 5 5 4 7 13 13 14 11 13 11 12 12 14 14 13 14 14 14 14 14 17 17 15 14 14 15 17 17 18 21 27 21 17 17 14 13 14 13 13 12 11 11
2 3 5 5 5 4 10 12 11 11 12 11 13 12 13 13 13 12 13 13 14 14 15 16 17 18 15 14 15 16 16 18 18 21 21 18 20 16 13 12 14 13 12 12 11
2 7 5 5 4 8 13 12 13 9 10 12 12 12 12 12 14 13 13 13 12 14 14 16 17 18 16 17 17 17 17 18 18 19 19 20 16 12 13 13 13 13 12 12 12
4 10 5 5 10 11 11 12 10 10 11 11 11 11 12 13 13 14 13 13 11 12 14 14 16 17 16 16 15 16 16 16 17 20 20 21 17 12 13 13 16 14 12 11 11
8 9 5 5 12 12 11 11 10 10 11 12 12 11 12 13 13 13 13 11 11 12 13 14 16 17 17 17 16 17 16 16 18 18 20 19 16 13 15 15 13 15 12 11 11
7 11 9 9 8 10 11 11 12 10 10 11 12 12 13 14 13 13 13 12 11 11 11 11 15 15 16 14 15 17 16 16 16 18 16 17 15 12 11 12 11 10 10 10 11
8 11 10 12 11 11 10 11 13 12 11 11 12 12 12 13 15 14 12 13 12 11 11 12 16 16 15 15 17 16 16 16 18 17 17 15 15 13 11 11 11 11 10 11 11
9 11 10 10 11 12 11 12 12 11 11 12 12 11 11 13 11 12 13 13 12 12 12 12 15 19 19 14 15 18 16 16 16 16 16 16 16 12 11 11 13 12 12 12 11
8 7 9 11 11 12 12 12 12 11 10 9 10 11 12 11 9 9 9 9 10 13 13 14 16 19 17 20 20 20 18 15 15 15 15 18 14 10 13 12 11 12 12 12 11